| time (UTC) | temp F | wind direction | speed knots | gust knots | rain 1hr in | rain 24hr in | rain mn in | humidity % | barometer mb |
| 20260503185501 | 70 | 4 | 5.2 | 9.6 | 0.00 | 0.00 | 0.00 | 49 | 1012.3 |
| 20260503184955 | 69 | 23 | 5.2 | 9.6 | 0.00 | 0.00 | 0.00 | 49 | 1012.6 |
| 20260503184731 | 69 | 350 | 5.2 | 9.6 | 0.00 | 0.00 | 0.00 | 49 | 1012.6 |
| 20260503183948 | 69 | 9 | 6.1 | 9.6 | 0.00 | 0.00 | 0.00 | 50 | 1012.6 |
| 20260503183448 | 68 | 9 | 5.2 | 9.6 | 0.00 | 0.00 | 0.00 | 51 | 1012.7 |
| 20260503182950 | 68 | 333 | 5.2 | 8.7 | 0.00 | 0.00 | 0.00 | 51 | 1012.7 |
| 20260503182729 | 68 | 16 | 5.2 | 8.7 | 0.00 | 0.00 | 0.00 | 52 | 1012.7 |
| 20260503181947 | 68 | 14 | 5.2 | 8.7 | 0.00 | 0.00 | 0.00 | 53 | 1012.8 |
| 20260503181447 | 67 | 343 | 5.2 | 8.7 | 0.00 | 0.00 | 0.00 | 53 | 1012.8 |
| 20260503180946 | 67 | 359 | 4.3 | 8.7 | 0.00 | 0.00 | 0.00 | 53 | 1012.8 |
| 20260503180729 | 67 | 23 | 5.2 | 7.8 | 0.00 | 0.00 | 0.00 | 52 | 1012.9 |
| 20260503175944 | 67 | 23 | 4.3 | 7.8 | 0.00 | 0.00 | 0.00 | 52 | 1012.9 |
| 20260503175438 | 67 | 4 | 4.3 | 8.7 | 0.00 | 0.00 | 0.00 | 53 | 1012.9 |
| 20260503174937 | 66 | 352 | 4.3 | 8.7 | 0.00 | 0.00 | 0.00 | 53 | 1012.9 |
| 20260503174436 | 66 | 350 | 4.3 | 6.1 | 0.00 | 0.00 | 0.00 | 54 | 1012.9 |
| 20260503174218 | 65 | 14 | 5.2 | 6.1 | 0.00 | 0.00 | 0.00 | 54 | 1012.9 |
| 20260503173431 | 65 | 359 | 5.2 | 8.7 | 0.00 | 0.00 | 0.00 | 56 | 1013.0 |
| 20260503173216 | 65 | 359 | 6.1 | 9.6 | 0.00 | 0.00 | 0.00 | 56 | 1013.0 |
| 20260503172433 | 65 | 347 | 5.2 | 9.6 | 0.00 | 0.00 | 0.00 | 58 | 1013.0 |
| 20260503171929 | 65 | 9 | 4.3 | 8.7 | 0.00 | 0.00 | 0.00 | 59 | 1013.1 |
| 20260503171431 | 64 | 354 | 5.2 | 8.7 | 0.00 | 0.00 | 0.00 | 59 | 1013.1 |
| 20260503170929 | 64 | 9 | 4.3 | 8.7 | 0.00 | 0.00 | 0.00 | 59 | 1013.1 |
| 20260503170429 | 64 | 15 | 4.3 | 8.7 | 0.00 | 0.00 | 0.00 | 60 | 1013.2 |
| 20260503160146 | 57 | 18 | 2.6 | 4.3 | 0.00 | 0.00 | 0.00 | 80 | 1013.4 |
| 20260503150337 | 54 | 9 | 3.5 | 5.2 | 0.00 | 0.00 | 0.00 | 87 | 1013.4 |
| 20260503131235 | 51 | 17 | 0.9 | 2.6 | 0.00 | 0.00 | 0.00 | 88 | 1012.9 |
| 20260503130731 | 51 | 9 | 0.9 | 1.7 | 0.00 | 0.00 | 0.00 | 88 | 1012.9 |
| 20260503130230 | 51 | 9 | 0.9 | 2.6 | 0.00 | 0.00 | 0.00 | 88 | 1012.9 |
| 20260503120131 | 52 | 9 | 0.9 | 2.6 | 0.00 | 0.00 | 0.00 | 86 | 1013.4 |
| 20260503110601 | 52 | 53 | 0.0 | 0.9 | 0.00 | 0.00 | 0.00 | 85 | 1013.4 |
| 20260503090436 | 55 | 53 | 0.9 | 1.7 | 0.00 | 0.00 | 0.00 | 79 | 1013.6 |
| 20260503080843 | 56 | 26 | 0.9 | 2.6 | 0.00 | 0.00 | 0.00 | 74 | 1013.6 |
| 20260503080345 | 56 | 26 | 0.9 | 2.6 | 0.00 | 0.00 | 0.00 | 75 | 1013.6 |
| 20260503080123 | 56 | 9 | 1.7 | 2.6 | 0.00 | 0.00 | 0.00 | 74 | 1013.6 |
| 20260503072831 | 57 | 335 | 0.0 | 1.7 | 0.00 | 0.00 | 0.00 | 70 | 1013.6 |
| 20260503072328 | 57 | 335 | 0.9 | 1.7 | 0.00 | 0.00 | 0.00 | 70 | 1013.6 |
| 20260503071829 | 57 | 335 | 0.0 | 1.7 | 0.00 | 0.00 | 0.00 | 70 | 1013.5 |
| 20260503071326 | 58 | 335 | 0.0 | 0.9 | 0.00 | 0.00 | 0.00 | 70 | 1013.5 |
| 20260503070817 | 58 | 335 | 0.0 | 0.9 | 0.00 | 0.00 | 0.00 | 69 | 1013.5 |
| 20260503070311 | 58 | 335 | 0.0 | 0.9 | 0.00 | 0.00 | 0.00 | 68 | 1013.4 |
| 20260503060256 | 61 | 310 | 0.9 | 1.7 | 0.00 | 0.00 | 0.00 | 59 | 1013.4 |
| 20260503054750 | 62 | 219 | 0.9 | 2.6 | 0.00 | 0.00 | 0.00 | 60 | 1013.3 |
| 20260503054236 | 62 | 240 | 1.7 | 3.5 | 0.00 | 0.00 | 0.00 | 59 | 1013.3 |
| 20260503053736 | 63 | 225 | 1.7 | 3.5 | 0.00 | 0.00 | 0.00 | 59 | 1013.3 |
| 20260503053236 | 63 | 247 | 1.7 | 3.5 | 0.00 | 0.00 | 0.00 | 58 | 1013.4 |
| 20260503052732 | 63 | 181 | 1.7 | 3.5 | 0.00 | 0.00 | 0.00 | 58 | 1013.4 |
| 20260503052235 | 63 | 211 | 1.7 | 3.5 | 0.00 | 0.00 | 0.00 | 57 | 1013.4 |
| 20260503051733 | 64 | 213 | 1.7 | 3.5 | 0.00 | 0.00 | 0.00 | 60 | 1013.3 |
| 20260503051230 | 65 | 238 | 0.9 | 1.7 | 0.00 | 0.00 | 0.00 | 59 | 1013.3 |
| 20260503050714 | 65 | 221 | 0.9 | 2.6 | 0.00 | 0.00 | 0.00 | 56 | 1013.3 |
| 20260503050206 | 66 | 225 | 0.9 | 2.6 | 0.00 | 0.00 | 0.00 | 53 | 1013.3 |
| 20260503045705 | 66 | 348 | 0.9 | 2.6 | 0.00 | 0.00 | 0.00 | 45 | 1013.3 |
| 20260503045450 | 66 | 331 | 1.7 | 2.6 | 0.00 | 0.00 | 0.00 | 45 | 1013.3 |
| 20260503044708 | 67 | 326 | 0.9 | 2.6 | 0.00 | 0.00 | 0.00 | 47 | 1013.0 |
| 20260503044202 | 67 | 38 | 0.9 | 2.6 | 0.00 | 0.00 | 0.00 | 43 | 1013.0 |
| 20260503043943 | 67 | 84 | 0.9 | 2.6 | 0.00 | 0.00 | 0.00 | 45 | 1013.0 |
| 20260503043451 | 68 | 174 | 0.9 | 2.6 | 0.00 | 0.00 | 0.00 | 47 | 1012.9 |
| 20260503042703 | 68 | 135 | 1.7 | 3.5 | 0.00 | 0.00 | 0.00 | 44 | 1012.9 |
| 20260503042446 | 68 | 132 | 1.7 | 4.3 | 0.00 | 0.00 | 0.00 | 43 | 1012.9 |
| 20260503041952 | 68 | 113 | 0.9 | 4.3 | 0.00 | 0.00 | 0.00 | 43 | 1012.8 |
| 20260503041202 | 68 | 70 | 0.9 | 3.5 | 0.00 | 0.00 | 0.00 | 43 | 1012.8 |
| 20260503040702 | 68 | 52 | 0.9 | 3.5 | 0.00 | 0.00 | 0.00 | 43 | 1012.8 |
| 20260503040204 | 69 | 19 | 0.9 | 2.6 | 0.00 | 0.00 | 0.00 | 44 | 1012.4 |
| 20260503035703 | 69 | 74 | 0.9 | 3.5 | 0.00 | 0.00 | 0.00 | 42 | 1012.4 |
| 20260503035202 | 69 | 81 | 0.9 | 3.5 | 0.00 | 0.00 | 0.00 | 42 | 1012.4 |
| 20260503034703 | 69 | 103 | 1.7 | 6.1 | 0.00 | 0.00 | 0.00 | 42 | 1012.3 |
| 20260503034205 | 69 | 75 | 2.6 | 6.1 | 0.00 | 0.00 | 0.00 | 42 | 1012.3 |
| 20260503033702 | 70 | 70 | 2.6 | 4.3 | 0.00 | 0.00 | 0.00 | 42 | 1012.3 |
| 20260503033201 | 70 | 70 | 3.5 | 6.1 | 0.00 | 0.00 | 0.00 | 41 | 1012.3 |
| 20260503032950 | 70 | 78 | 3.5 | 6.1 | 0.00 | 0.00 | 0.00 | 41 | 1012.3 |
| 20260503032159 | 70 | 62 | 3.5 | 6.1 | 0.00 | 0.00 | 0.00 | 41 | 1012.3 |
| 20260503031701 | 71 | 126 | 3.5 | 6.1 | 0.00 | 0.00 | 0.00 | 40 | 1012.0 |
| 20260503031159 | 71 | 89 | 3.5 | 6.1 | 0.00 | 0.00 | 0.00 | 41 | 1012.0 |
| 20260503030700 | 71 | 88 | 3.5 | 8.7 | 0.00 | 0.00 | 0.00 | 41 | 1012.0 |
| 20260503030158 | 71 | 117 | 4.3 | 8.7 | 0.00 | 0.00 | 0.00 | 41 | 1011.8 |
| 20260503025707 | 71 | 51 | 5.2 | 9.6 | 0.00 | 0.00 | 0.00 | 40 | 1011.8 |
| 20260503025204 | 72 | 83 | 4.3 | 9.6 | 0.00 | 0.00 | 0.00 | 40 | 1011.8 |
| 20260503024713 | 72 | 46 | 3.5 | 8.7 | 0.00 | 0.00 | 0.00 | 41 | 1011.8 |
| 20260503023654 | 72 | 96 | 4.3 | 7.8 | 0.00 | 0.00 | 0.00 | 40 | 1011.8 |
| 20260503022634 | 72 | 53 | 4.3 | 8.7 | 0.00 | 0.00 | 0.00 | 40 | 1011.7 |
| 20260503022135 | 73 | 76 | 5.2 | 9.6 | 0.00 | 0.00 | 0.00 | 39 | 1011.7 |
| 20260503021630 | 73 | 81 | 6.1 | 11.3 | 0.00 | 0.00 | 0.00 | 39 | 1011.7 |
| 20260503021130 | 73 | 112 | 6.1 | 11.3 | 0.00 | 0.00 | 0.00 | 39 | 1011.7 |
| 20260503020633 | 73 | 101 | 5.2 | 9.6 | 0.00 | 0.00 | 0.00 | 38 | 1011.7 |
| 20260503020140 | 73 | 89 | 4.3 | 9.6 | 0.00 | 0.00 | 0.00 | 38 | 1011.6 |
| 20260503015645 | 73 | 134 | 5.2 | 9.6 | 0.00 | 0.00 | 0.00 | 38 | 1011.6 |
| 20260503015127 | 73 | 119 | 4.3 | 9.6 | 0.00 | 0.00 | 0.00 | 38 | 1011.6 |
| 20260503014615 | 73 | 109 | 5.2 | 9.6 | 0.00 | 0.00 | 0.00 | 39 | 1011.6 |
| 20260503014109 | 74 | 108 | 5.2 | 9.6 | 0.00 | 0.00 | 0.00 | 38 | 1011.6 |
| 20260503013609 | 74 | 109 | 4.3 | 9.6 | 0.00 | 0.00 | 0.00 | 38 | 1011.6 |
| 20260503013111 | 74 | 80 | 4.3 | 9.6 | 0.00 | 0.00 | 0.00 | 40 | 1011.7 |
| 20260503012613 | 74 | 78 | 4.3 | 8.7 | 0.00 | 0.00 | 0.00 | 39 | 1011.7 |
| 20260503012106 | 74 | 112 | 4.3 | 8.7 | 0.00 | 0.00 | 0.00 | 39 | 1011.7 |
| 20260503011611 | 74 | 117 | 5.2 | 10.4 | 0.00 | 0.00 | 0.00 | 40 | 1011.6 |
| 20260503011110 | 74 | 80 | 5.2 | 10.4 | 0.00 | 0.00 | 0.00 | 40 | 1011.6 |
| 20260503010606 | 74 | 73 | 4.3 | 7.8 | 0.00 | 0.00 | 0.00 | 40 | 1011.6 |
| 20260503010348 | 74 | 84 | 4.3 | 9.6 | 0.00 | 0.00 | 0.00 | 40 | 1011.8 |
| 20260503005601 | 74 | 41 | 5.2 | 9.6 | 0.00 | 0.00 | 0.00 | 40 | 1011.8 |
| 20260503005102 | 74 | 84 | 5.2 | 9.6 | 0.00 | 0.00 | 0.00 | 39 | 1011.8 |
| 20260503004602 | 74 | 107 | 4.3 | 9.6 | 0.00 | 0.00 | 0.00 | 39 | 1011.8 |
| 20260503004100 | 74 | 96 | 4.3 | 7.8 | 0.00 | 0.00 | 0.00 | 39 | 1011.8 |
| 20260503003604 | 74 | 111 | 3.5 | 7.0 | 0.00 | 0.00 | 0.00 | 40 | 1011.8 |
| 20260503003105 | 74 | 145 | 3.5 | 7.0 | 0.00 | 0.00 | 0.00 | 39 | 1011.8 |
| 20260503002605 | 73 | 104 | 4.3 | 8.7 | 0.00 | 0.00 | 0.00 | 41 | 1011.8 |
| 20260503002100 | 73 | 100 | 6.1 | 9.6 | 0.00 | 0.00 | 0.00 | 41 | 1011.8 |
| 20260503001845 | 73 | 67 | 5.2 | 9.6 | 0.00 | 0.00 | 0.00 | 41 | 1011.9 |
| 20260503001102 | 73 | 98 | 5.2 | 9.6 | 0.00 | 0.00 | 0.00 | 42 | 1011.9 |
| 20260503000602 | 73 | 70 | 5.2 | 8.7 | 0.00 | 0.00 | 0.00 | 42 | 1011.9 |
| 20260503000103 | 73 | 63 | 4.3 | 8.7 | 0.00 | 0.00 | 0.00 | 42 | 1012.0 |
| 20260502235603 | 73 | 48 | 4.3 | 8.7 | 0.00 | 0.00 | 0.00 | 43 | 1012.0 |
| 20260502235102 | 73 | 88 | 6.1 | 10.4 | 0.00 | 0.00 | 0.00 | 43 | 1012.3 |
| 20260502234606 | 73 | 65 | 5.2 | 10.4 | 0.00 | 0.00 | 0.00 | 43 | 1012.3 |
| 20260502234101 | 73 | 73 | 4.3 | 7.8 | 0.00 | 0.00 | 0.00 | 45 | 1012.3 |
| 20260502233850 | 73 | 115 | 3.5 | 7.8 | 0.00 | 0.00 | 0.00 | 44 | 1012.6 |
| 20260502232545 | 73 | 55 | 3.5 | 7.8 | 0.00 | 0.00 | 0.00 | 45 | 1012.6 |
| 20260502232042 | 73 | 121 | 5.2 | 9.6 | 0.00 | 0.00 | 0.00 | 48 | 1012.7 |
| 20260502231538 | 72 | 4 | 6.1 | 9.6 | 0.00 | 0.00 | 0.00 | 48 | 1012.7 |
| 20260502231038 | 71 | 351 | 5.2 | 9.6 | 0.00 | 0.00 | 0.00 | 50 | 1012.7 |
| 20260502230822 | 71 | 353 | 4.3 | 7.0 | 0.00 | 0.00 | 0.00 | 52 | 1012.9 |
| 20260502230039 | 71 | 359 | 5.2 | 7.8 | 0.00 | 0.00 | 0.00 | 50 | 1012.9 |
| 20260502225540 | 71 | 4 | 4.3 | 7.8 | 0.00 | 0.00 | 0.00 | 51 | 1012.9 |
| 20260502225039 | 71 | 15 | 3.5 | 6.1 | 0.00 | 0.00 | 0.00 | 51 | 1013.0 |
| 20260502224538 | 71 | 352 | 3.5 | 6.1 | 0.00 | 0.00 | 0.00 | 51 | 1013.0 |
| 20260502224038 | 71 | 340 | 4.3 | 7.8 | 0.00 | 0.00 | 0.00 | 52 | 1013.0 |
| 20260502223816 | 71 | 25 | 4.3 | 7.8 | 0.00 | 0.00 | 0.00 | 51 | 1013.3 |
| 20260502223033 | 70 | 28 | 4.3 | 6.1 | 0.00 | 0.00 | 0.00 | 51 | 1013.3 |
| 20260502222530 | 70 | 336 | 4.3 | 6.1 | 0.00 | 0.00 | 0.00 | 51 | 1013.3 |
| 20260502222029 | 70 | 359 | 4.3 | 7.8 | 0.00 | 0.00 | 0.00 | 51 | 1013.4 |
| 20260502221533 | 70 | 338 | 4.3 | 7.8 | 0.00 | 0.00 | 0.00 | 52 | 1013.4 |
| 20260502221029 | 70 | 13 | 4.3 | 6.1 | 0.00 | 0.00 | 0.00 | 54 | 1013.4 |
| 20260502220755 | 69 | 359 | 4.3 | 7.0 | 0.00 | 0.00 | 0.00 | 54 | 1013.7 |
| 20260502220255 | 69 | 349 | 5.2 | 7.8 | 0.00 | 0.00 | 0.00 | 54 | 1013.7 |
| 20260502215513 | 69 | 332 | 5.2 | 7.8 | 0.00 | 0.00 | 0.00 | 56 | 1013.7 |
| 20260502215012 | 69 | 330 | 5.2 | 7.8 | 0.00 | 0.00 | 0.00 | 55 | 1013.9 |
| 20260502214510 | 69 | 359 | 3.5 | 7.8 | 0.00 | 0.00 | 0.00 | 52 | 1013.9 |
| 20260502214012 | 69 | 19 | 3.5 | 6.1 | 0.00 | 0.00 | 0.00 | 54 | 1013.9 |
| 20260502213511 | 68 | 359 | 3.5 | 6.1 | 0.00 | 0.00 | 0.00 | 54 | 1014.2 |
| 20260502213006 | 68 | 324 | 3.5 | 5.2 | 0.00 | 0.00 | 0.00 | 55 | 1014.2 |
| 20260502212507 | 68 | 336 | 3.5 | 5.2 | 0.00 | 0.00 | 0.00 | 55 | 1014.2 |
| 20260502212004 | 68 | 15 | 3.5 | 6.1 | 0.00 | 0.00 | 0.00 | 56 | 1014.4 |
| 20260502211504 | 68 | 335 | 3.5 | 6.1 | 0.00 | 0.00 | 0.00 | 55 | 1014.4 |
| 20260502211004 | 67 | 52 | 3.5 | 6.1 | 0.00 | 0.00 | 0.00 | 55 | 1014.4 |
| 20260502210504 | 67 | 34 | 3.5 | 6.1 | 0.00 | 0.00 | 0.00 | 56 | 1014.4 |
| 20260502210001 | 67 | 354 | 3.5 | 6.1 | 0.00 | 0.00 | 0.00 | 56 | 1014.4 |
| 20260502205505 | 67 | 330 | 3.5 | 5.2 | 0.00 | 0.00 | 0.00 | 58 | 1014.4 |
| 20260502205247 | 66 | 321 | 2.6 | 4.3 | 0.00 | 0.00 | 0.00 | 59 | 1014.5 |
| 20260502204505 | 66 | 322 | 3.5 | 5.2 | 0.00 | 0.00 | 0.00 | 57 | 1014.5 |
| 20260502204256 | 66 | 359 | 3.5 | 5.2 | 0.00 | 0.00 | 0.00 | 59 | 1014.5 |
| 20260502203500 | 65 | 322 | 4.3 | 6.1 | 0.00 | 0.00 | 0.00 | 58 | 1014.7 |
| 20260502202959 | 65 | 351 | 4.3 | 8.7 | 0.00 | 0.00 | 0.00 | 59 | 1014.7 |
| 20260502202453 | 65 | 342 | 3.5 | 8.7 | 0.00 | 0.00 | 0.00 | 58 | 1014.7 |
| 20260502201945 | 65 | 335 | 3.5 | 7.0 | 0.00 | 0.00 | 0.00 | 60 | 1014.9 |
| 20260502201444 | 65 | 34 | 5.2 | 7.8 | 0.00 | 0.00 | 0.00 | 59 | 1014.9 |
| 20260502200940 | 65 | 333 | 4.3 | 7.8 | 0.00 | 0.00 | 0.00 | 59 | 1014.9 |
| 20260502200442 | 65 | 14 | 3.5 | 7.0 | 0.00 | 0.00 | 0.00 | 61 | 1015.0 |
| 20260502195940 | 64 | 17 | 3.5 | 7.8 | 0.00 | 0.00 | 0.00 | 60 | 1015.0 |
| 20260502195436 | 64 | 9 | 2.6 | 7.8 | 0.00 | 0.00 | 0.00 | 61 | 1015.0 |
| 20260502194938 | 63 | 359 | 3.5 | 5.2 | 0.00 | 0.00 | 0.00 | 62 | 1015.1 |
| 20260502194437 | 63 | 9 | 4.3 | 9.6 | 0.00 | 0.00 | 0.00 | 62 | 1015.1 |
| 20260502193934 | 63 | 350 | 5.2 | 9.6 | 0.00 | 0.00 | 0.00 | 62 | 1015.1 |
| 20260502193437 | 63 | 21 | 4.3 | 8.7 | 0.00 | 0.00 | 0.00 | 63 | 1015.3 |
| 20260502192933 | 62 | 324 | 4.3 | 8.7 | 0.00 | 0.00 | 0.00 | 64 | 1015.3 |
| 20260502192430 | 61 | 61 | 5.2 | 8.7 | 0.00 | 0.00 | 0.00 | 67 | 1015.3 |
| 20260502191931 | 61 | 33 | 6.1 | 10.4 | 0.00 | 0.00 | 0.00 | 66 | 1015.5 |
| 20260502191429 | 61 | 359 | 5.2 | 10.4 | 0.00 | 0.00 | 0.00 | 67 | 1015.5 |
| 20260502190932 | 61 | 4 | 5.2 | 9.6 | 0.00 | 0.00 | 0.00 | 67 | 1015.5 |
| 20260502190429 | 60 | 345 | 4.3 | 8.7 | 0.00 | 0.00 | 0.00 | 67 | 1015.7 |
| 20260502190218 | 60 | 9 | 3.5 | 6.1 | 0.00 | 0.00 | 0.00 | 68 | 1015.7 |